一网星座-0321星 (ONEWEB-0321 )

导读

ONEWEB-0321是英国OneWeb低轨卫星星座的组网卫星,于2021年9月14日发射入轨。该卫星运行在1200公里左右的近地极轨轨道,重量约175-200kg,采用Ku波段通信,通过“渐进式俯仰”技术避免与地球同步轨道卫星信号干扰。作为OneWeb卫星互联网项目的组成部分,它旨在为全球尤其是偏远地区提供高速宽带接入服务,助力弥合全球数字鸿沟,推动全球空天地一体化网络建设。

Basic Information
目录编号:
49191
目录名称:
ONEWEB-0321
国际标识:
2021-083F
轨道中心:
EARTH
卫星名称:
一网星座-0321星
卫星全名:
一网星座-0321星 (ONEWEB-0321 )
卫星状态:
在轨 (已飞行1823 天)
发射日期:
2021-09-14 UTC
国别 :
英国 (GB)
星等 :
--
This satellite is enrolled in the Space Conjunction Data Service (SCDS) and the current flight risk assessment level is: No High Risk
Orbit Information
数据来源 国际轨道数据 AOE轨道数据
星历时间 2026-09-10T20:04:35+0800
1天前
查看轨道信息
2026-09-09T22:00:00+0800
2天前
查看轨道信息
半长轴 7559.907km 7559.905km
偏心率 0.0002085 0.000206
轨道倾角 87.913° 87.914°
近地点辐角 84.298° 80.619°
升交点赤经 257.416° 257.601°
平近点角 275.839° 228.357°
近地点 1180.193km 1180.21km
远地点 1183.347km 1183.326km
周期 109.027分钟 109.027分钟
每日圈数 13.207728 13.207733
Detailed Information
平衡模式:
三轴稳定
覆盖范围:
全球
运营商:
一网卫星公司
运营商所在国:
英国
制造商(研发单位):
一网卫星公司
制造商所在国:
英国
使用方式:
暂无
Satellite Introduction
OneWeb卫星网络由648颗重约125公斤的微型卫星组成,运行在1200公里的轨道上。 每颗卫星都能够提供至少每秒8千兆位的吞吐量,以使用其高吞吐量的Ku频段有效载荷为家庭和移动平台提供互联网接入。该卫星仍在工作。
2D Orbit Map
3D Orbit Map
Orbit Altitude Analysis Chart
Orbit Inclination Analysis Chart
Orbit Comprehensive Analysis Chart
View Comprehensive Chart
Miss Distance Evolution Trend with All Objects
Collision Probability Evolution Trend with All Objects